Regional Weather Roundup
Issued by NWS

Home | Current Version | Previous Version | Graphics & Text | Print | Product List | Glossary Off
Versions: 1 2 3 4 5 6 7 8 9 10 11 12 13 14 15 16 17 18 19 20 21 22 23 24 25 26 27 28 29 30 31 32 33 34 35 36 37 38 39 40 41 42 43 44 45 46 47 48 49 50

000
ASUS43 KMKX 242000
RWRWI

WISCONSIN REGIONAL WEATHER ROUNDUP
NATIONAL WEATHER SERVICE MILWAUKEE/SULLIVAN WI
300 PM CDT SUN JUL 24 2016

NOTE: "FAIR" INDICATES FEW OR NO CLOUDS BELOW 12,000 FEET WITH NO
SIGNIFICANT WEATHER AND/OR OBSTRUCTIONS TO VISIBILITY.

WIZ001-002-006>008-014>016-023>028-242100-
NORTHWEST WISCONSIN

CITY           SKY/WX    TMP DP  RH WIND       PRES   REMARKS
SUPERIOR ARPT  MOSUNNY   82  64  53 W14       29.81S HX  83
ASHLAND        MOSUNNY   85  63  47 W16G24    29.80S HX  86
HAYWARD        MOSUNNY   80  62  54 W14G23    29.85R HX  81
SIREN          MOSUNNY   81  59  47 NW13G18   29.87F HX  81
CUMBERLAND     CLOUDY    79  61  53 NW14G22   29.86S HX  80
RICE LAKE      CLOUDY    80  62  55 W13G18    29.87R HX  81
CHETEK         CLOUDY    82  66  57 W9        29.86R HX  84
LADYSMITH      MOSUNNY   83  63  50 W13G18    29.86S HX  84
EAU CLAIRE     NOT AVBL
MENOMONIE      SUNNY     85  63  48 W13G20    29.86R HX  86
NEW RICHMOND   SUNNY     82  62  51 W10G17    29.87F HX  82
OSCEOLA        SUNNY     81  61  50 NW12G20   29.90S HX  82
$$

WIZ003>005-009-010-017-018-242100-
NORTH CENTRAL WISCONSIN

CITY           SKY/WX    TMP DP  RH WIND       PRES   REMARKS
MANITOWISH WTR PTSUNNY   80  63  55 W9        29.82F HX  82
ARBOR VITAE    MOSUNNY   82  65  55 NW8G16    29.83S HX  84
WOODRUFF       MOSUNNY   82  65  55 NW8G16    29.83S HX  84
RHINELANDER    MOSUNNY   84  66  54 W9G22     29.84S HX  86
EAGLE RIVER    MOSUNNY   81  64  56 W13G18    29.82S HX  83
LAND O LAKES   MOSUNNY   83  64  52 W7G17     29.82F HX  84
PHILLIPS       PTSUNNY   80  66  62 W6        29.83S HX  82
TOMAHAWK       MOSUNNY   81  64  57 W8        29.84S HX  82
MEDFORD        PTSUNNY   81  67  61 W12       29.85F HX  83
MERRILL        MOSUNNY   83  71  68 W9        29.84S HX  87
$$

WIZ029-030-035-036-043>047-242100-
CENTRAL WISCONSIN

CITY           SKY/WX    TMP DP  RH WIND       PRES   REMARKS
WAUSAU         MOSUNNY   84  69  60 W14       29.82S HX  88
MOSINEE        PTSUNNY   82  73  74 SW10      29.85F HX  88
MARSHFIELD     SUNNY     85  64  49 W16G22    29.85S HX  86
STEVENS POINT  MOSUNNY   82  69  64 W12G18    29.84S HX  86
WAUPACA        MOSUNNY   89  74  60 W10G16    29.81S HX  98
WAUTOMA        MOSUNNY   87  77  72 W9        29.82S HX  99
WISC RAPIDS    MOSUNNY   87  69  54 NW9       29.85S HX  91
CAMP DOUGLAS   NOT AVBL
$$

WIZ011>013-019>022-031-037>040-048>050-242100-
NORTHEAST WISCONSIN

CITY           SKY/WX    TMP DP  RH WIND       PRES   REMARKS
ANTIGO         MOSUNNY   78  74  85 CALM      29.84F HX  81
SHAWANO        CLOUDY    82  76  81 W12G18    29.81R HX  89
OCONTO         CLOUDY    79  79 100 SW6       29.78F HX  84
STURGEON BAY   CLOUDY    78  73  84 S13       29.79F HX  81
GREEN BAY      CLOUDY    83  80  91 W5        29.78F HX  95
MANITOWOC      CLOUDY    79  72  78 S10       29.81F HX  82
APPLETON       PTSUNNY   84  75  74 W12G18    29.79F HX  92
CLINTONVILLE   CLOUDY    81  75  83 W10G17    29.81S HX  86
OSHKOSH        PTSUNNY   87  78  74 W9        29.80S HX 100
$$

WIZ032>034-041-042-053>061-242100-
SOUTHWEST WISCONSIN

CITY           SKY/WX    TMP DP  RH WIND       PRES   REMARKS
LA CROSSE      SUNNY     89  66  46 NW10      29.85R HX  91
SPARTA         SUNNY     87  66  49 W8        29.85F HX  89
VIROQUA        MOSUNNY   85  63  47 N9        29.89S HX  86
BOSCOBEL       SUNNY     92  72  51 NW9       29.85R HX  99
PRAIRIE DU CHI SUNNY     87  69  54 NW8       29.85R HX  91
PLATTEVILLE    CLOUDY    84  81  90 SW7       29.89R HX  99
$$

WIZ056-057-062-063-064-067-068-242100-
SOUTH CENTRAL WISCONSIN

CITY           SKY/WX    TMP DP  RH WIND       PRES   REMARKS
REEDSBURG      PTSUNNY  N/A N/A N/A NW13      29.84S
BARABOO/DELLS  MOSUNNY   87  75  68 W10       29.85S HX  96
LONE ROCK      PTSUNNY   89  79  72 NW6       29.84S HX 104
MINERAL POINT  CLOUDY    86  81  84 SW7       29.89R HX 102
MADISON        PTSUNNY   90  79  70 NW9G17    29.83S HX 106
MIDDLETON      PTSUNNY   89  78  71 W15       29.85S HX 103
WATERTOWN      MOSUNNY   90  80  73 W10       29.83S HX 107
MONROE         MOSUNNY   90  77  66 SW10G21   29.86S HX 102
JANESVILLE     PTSUNNY   93  77  59 W12G17    29.84S HX 107
$$

WIZ051-052-058>065-066-070>072-242100-
SOUTHEAST WISCONSIN

CITY           SKY/WX    TMP DP  RH WIND       PRES   REMARKS
MILWAUKEE      PTSUNNY   92  78  63 S16G22    29.81F HX 107
WAUKESHA       NOT AVBL
MILWAUKEE/TIMM PTSUNNY   91  72  52 W12       29.82F HX  98
RACINE         TSTM      82  77  84 CALM      29.85R VSB 1   HX  90
BURLINGTON     MOSUNNY   94  85  74 SW9       29.83F HX 123
KENOSHA        MOSUNNY   93  77  59 SW17G25   29.84S HX 107
FOND DU LAC    PTSUNNY   89  78  70 SW10      29.80F HX 103
SHEBOYGAN      SUNNY     82  74  76 S7        29.81F HX  88
WEST BEND      PTSUNNY   90  77  66 W10G16    29.82F HX 102
JUNEAU         PTSUNNY   87  78  74 SW14      29.84S HX 101
$$

LSZ147-162-242100-
LAKE SUPERIOR

STATION/POSITION TIME  TEMP    WIND        PRES    WAVE
                       AIR SEA DIR/SP/G            HT/PER
                 (UTC) (F)     (DEG/KT/KT) (MB)    (FT/S)
W MID LAKE BUOY  1850   63 58  220/ 10/ 12 1006.5F   1/ 3
DEVILS ISLAND    1900   71     240/ 23/ 26 1007.5F
PORT WING        1940   77     250/ 12/ 18 1009.5
SAXON HARBOR     1900   80     280/  5/ 12 1008.5R
$$

LMZ867-665-643>646-242100-
LAKE MICHIGAN

STATION/POSITION TIME  TEMP    WIND        PRES    WAVE
                       AIR SEA DIR/SP/G            HT/PER
                 (UTC) (F)     (DEG/KT/KT) (MB)    (FT/S)
CHAMBERS ISLAND  1900   77     190/  6/ 13 1008.5F
S GREEN BAY BUOY 1800   76 75  210/ 12/ 14   N/A
N MID LAKE BUOY  1850   69 68  210/ 12/ 14 1008.4S   4/ 6
NORTHPORT PIER   1940   74     160/  5/ 11 1008.1F
KEWAUNEE LAKESHO 1900   67     180/ 15/ 16 1009.1F
SHEBOYGAN LAKESH 1900   70     180/ 20/ 22 1009.8F
PORT WASHINGTON  1900   68     200/  4/  8 1010.5F
MILWAUKEE LAKESH 1910   70     150/ 11/ 12   N/A
S MID LAKE BUOY  1850   74 72  150/ 19/ 23 1010.0F   3/ 5
KENOSHA   LAKESH 1900   69     170/ 15/ 18 1009.8F
$$

TC  - TEMPERATURE IN CELSIUS
VSB - VISIBILITY IN STATUTE MILES
WCI - WIND CHILL INDEX
HX  - HEAT INDEX




USA.gov is the U.S. government's official web portal to all federal, state and local government web resources and services.